QPF
0.00 0.00 0.00 0.00 0.00 0.00 0.00 0.00 0.00 0.00 0.00 0.00 0.00 0.00 0.00 0.00 0.00 0.00 0.00 0.00 0.00 0.00 0.00 0.00 0.00 0.00 0.00 0.00 0.00 0.00 0.00 0.00 0.00 0.00 0.00 0.00 0.00 0.00 0.00 0.00 0.00 0.00 0.00 0.00 0.00
0.00 0.00 0.00 0.00 0.00 0.00 0.00 0.00 0.00 0.00 0.00 0.00 0.00 0.00 0.00 0.00 0.00 0.00 0.00 0.00 0.00 0.00 0.00 0.00 0.00 0.00 0.00 0.00 0.00 0.00 0.00 0.00 0.00 0.00 0.00 0.00 0.00 0.00 0.00 0.00 0.00 0.00 0.00 0.00 0.00
0.00 0.00 0.00 0.00 0.00 0.00 0.00 0.00 0.00 0.00 0.00 0.00 0.00 0.00 0.00 0.00 0.00 0.00 0.00 0.00 0.00 0.00 0.00 0.00 0.00 0.00 0.00 0.00 0.00 0.00 0.00 0.00 0.00 0.00 0.00 0.00 0.00 0.00 0.00 0.00 0.00 0.00 0.00 0.00 0.00
0.00 0.00 0.00 0.00 0.00 0.00 0.00 0.00 0.00 0.00 0.00 0.00 0.00 0.00 0.00 0.00 0.00 0.00 0.00 0.00 0.00 0.00 0.00 0.00 0.00 0.00 0.00 0.00 0.00 0.00 0.00 0.00 0.00 0.00 0.00 0.00 0.00 0.00 0.00 0.00 0.00 0.00 0.00 0.00 0.00
0.00 0.00 0.00 0.00 0.00 0.00 0.00 0.00 0.00 0.00 0.00 0.00 0.00 0.00 0.00 0.00 0.00 0.00 0.00 0.00 0.00 0.00 0.00 0.00 0.00 0.00 0.00 0.00 0.00 0.00 0.00 0.00 0.00 0.00 0.00 0.00 0.00 0.00 0.00 0.00 0.00 0.00 0.00 0.00 0.00
0.00 0.00 0.00 0.00 0.00 0.00 0.00 0.00 0.00 0.00 0.00 0.00 0.00 0.00 0.00 0.00 0.00 0.00 0.00 0.00 0.00 0.00 0.00 0.00 0.00 0.00 0.00 0.00 0.00 0.00 0.00 0.00 0.00 0.00 0.00 0.00 0.00 0.00 0.00 0.00 0.00 0.00 0.00 0.00 0.00
0.00 0.00 0.00 0.00 0.00 0.00 0.00 0.00 0.00 0.00 0.00 0.00 0.00 0.00 0.00 0.00 0.00 0.00 0.00 0.00 0.00 0.00 0.00 0.00 0.00 0.00 0.00 0.00 0.00 0.00 0.00 0.00 0.00 0.00 0.00 0.00 0.00 0.00 0.00 0.00 0.00 0.00 0.00 0.00 0.00
0.00 0.00 0.00 0.00 0.00 0.00 0.00 0.00 0.00 0.00 0.00 0.00 0.00 0.00 0.00 0.00 0.00 0.00 0.00 0.00 0.00 0.00 0.00 0.00 0.00 0.00 0.00 0.00 0.00 0.00 0.00 0.00 0.00 0.00 0.00 0.00 0.00 0.00 0.00 0.00 0.00 0.00 0.00 0.00 0.00
0.00 0.00 0.00 0.00 0.00 0.00 0.00 0.00 0.00 0.00 0.00 0.00 0.00 0.00 0.00 0.00 0.00 0.00 0.00 0.00 0.00 0.00 0.00 0.00 0.00 0.00 0.00 0.00 0.00 0.00 0.00 0.00 0.00 0.00 0.00 0.00 0.00 0.00 0.00 0.00 0.00 0.00 0.00 0.00 0.00
0.00 0.00 0.00 0.00 0.00 0.00 0.00 0.00 0.00 0.00 0.00 0.00 0.00 0.00 0.00 0.00 0.00 0.00 0.00 0.00 0.00 0.00 0.00 0.00 0.00 0.00 0.00 0.00 0.00 0.00 0.00 0.00 0.00 0.00 0.00 0.00 0.00 0.00 0.00 0.00 0.00 0.00 0.00 0.00 0.00
0.00 0.00 0.00 0.00 0.00 0.00 0.00 0.00 0.00 0.00 0.00 0.00 0.00 0.00 0.00 0.00 0.00 0.00 0.00 0.00 0.00 0.00 0.00 0.00 0.00 0.00 0.00 0.00 0.00 0.00 0.00 0.00 0.00 0.00 0.00 0.00 0.00 0.00 0.00 0.00 0.00 0.00 0.00 0.00 0.00
0.00 0.00 0.00 0.00 0.00 0.00 0.00 0.00 0.00 0.00 0.00 0.00 0.00 0.00 0.00 0.00 0.00 0.00 0.00 0.00 0.00 0.00 0.00 0.00 0.00 0.00 0.00 0.00 0.00 0.00 0.00 0.00 0.00 0.00 0.00 0.00 0.00 0.00 0.00 0.00 0.00 0.00 0.00 0.00 0.00
0.00 0.00 0.00 0.00 0.00 0.00 0.00 0.00 0.00 0.00 0.00 0.00 0.00 0.00 0.00 0.00 0.00 0.00 0.00 0.00 0.00 0.00 0.00 0.00 0.00 0.00 0.00 0.00 0.00 0.00 0.00 0.00 0.00 0.00 0.00 0.00 0.00 0.00 0.00 0.00 0.00 0.00 0.00 0.00 0.00
0.00 0.00 0.00 0.00 0.00 0.00 0.00 0.00 0.00 0.00 0.00 0.00 0.00 0.00 0.00 0.00 0.00 0.00 0.00 0.00 0.00 0.00 0.00 0.00 0.00 0.00 0.00 0.00 0.00 0.00 0.00 0.00 0.00 0.00 0.00 0.00 0.00 0.00 0.00 0.00 0.00 0.00 0.00 0.00 0.00
0.00 0.00 0.00 0.00 0.00 0.00 0.00 0.00 0.00 0.00 0.00 0.00 0.00 0.00 0.00 0.00 0.00 0.00 0.00 0.00 0.00 0.00 0.00 0.00 0.00 0.00 0.00 0.00 0.00 0.00 0.00 0.00 0.00 0.00 0.00 0.00 0.00 0.00 0.00 0.00 0.00 0.00 0.00 0.00 0.00
0.00 0.00 0.00 0.00 0.00 0.00 0.00 0.00 0.00 0.00 0.00 0.00 0.00 0.00 0.00 0.00 0.00 0.00 0.00 0.00 0.00 0.00 0.00 0.00 0.00 0.00 0.00 0.00 0.00 0.00 0.00 0.00 0.00 0.00 0.00 0.00 0.00 0.00 0.00 0.00 0.00 0.00 0.00 0.00 0.00
0.00 0.00 0.00 0.00 0.00 0.00 0.00 0.00 0.00 0.00 0.00 0.00 0.00 0.00 0.00 0.00 0.00 0.00 0.00 0.00 0.00 0.00 0.00 0.00 0.00 0.00 0.00 0.00 0.00 0.00 0.00 0.00 0.00 0.00 0.00 0.00 0.00 0.00 0.00 0.00 0.00 0.00 0.00 0.00 0.00
0.00 0.00 0.00 0.00 0.00 0.00 0.00 0.00 0.00 0.00 0.00 0.00 0.00 0.00 0.00 0.00 0.00 0.00 0.00 0.00 0.00 0.00 0.00 0.00 0.00 0.00 0.00 0.00 0.00 0.00 0.00 0.00 0.00 0.00 0.00 0.00 0.00 0.00 0.00 0.00 0.00 0.00 0.00 0.00 0.00
0.01 0.00 0.00 0.00 0.00 0.00 0.00 0.00 0.00 0.00 0.00 0.00 0.00 0.00 0.00 0.00 0.00 0.00 0.00 0.00 0.00 0.00 0.00 0.00 0.00 0.00 0.00 0.00 0.00 0.00 0.00 0.00 0.00 0.00 0.00 0.00 0.00 0.00 0.00 0.00 0.00 0.00 0.00 0.00 0.00
0.18 0.11 0.03 0.00 0.00 0.00 0.00 0.00 0.00 0.00 0.00 0.00 0.00 0.00 0.00 0.00 0.00 0.00 0.00 0.00 0.00 0.00 0.00 0.00 0.00 0.00 0.00 0.00 0.00 0.00 0.00 0.00 0.00 0.00 0.00 0.00 0.00 0.00 0.00 0.00 0.00 0.00 0.00 0.00 0.00
0.61 0.47 0.13 0.01 0.10 0.10 0.03 0.00 0.00 0.00 0.00 0.00 0.00 0.00 0.00 0.00 0.00 0.00 0.00 0.00 0.00 0.00 0.00 0.00 0.00 0.00 0.00 0.00 0.00 0.00 0.00 0.00 0.00 0.00 0.00 0.00 0.00 0.00 0.00 0.00 0.00 0.00 0.00 0.00 0.00
0.62 0.48 0.17 0.04 0.17 0.22 0.10 0.01 0.00 0.00 0.00 0.00 0.00 0.00 0.00 0.00 0.00 0.00 0.00 0.00 0.00 0.00 0.00 0.00 0.00 0.00 0.00 0.00 0.00 0.00 0.00 0.00 0.00 0.00 0.00 0.00 0.00 0.00 0.00 0.00 0.00 0.00 0.00 0.00 0.00
0.45 0.43 0.35 0.29 0.25 0.15 0.04 0.00 0.00 0.00 0.00 0.00 0.00 0.00 0.00 0.00 0.00 0.00 0.00 0.00 0.00 0.00 0.00 0.00 0.02 0.03 0.00 0.00 0.00 0.00 0.00 0.00 0.00 0.00 0.00 0.00 0.00 0.00 0.00 0.00 0.00 0.00 0.00 0.00 0.00
0.37 0.42 0.43 0.54 0.26 0.06 0.01 0.00 0.00 0.00 0.00 0.00 0.00 0.00 0.00 0.00 0.00 0.00 0.00 0.00 0.00 0.00 0.00 0.00 0.04 0.03 0.01 0.00 0.00 0.00 0.00 0.00 0.00 0.00 0.00 0.00 0.00 0.00 0.00 0.00 0.00 0.00 0.00 0.00 0.00
0.40 0.41 0.35 0.32 0.24 0.07 0.01 0.02 0.01 0.00 0.00 0.00 0.00 0.00 0.00 0.00 0.01 0.00 0.00 0.00 0.00 0.00 0.00 0.01 0.07 0.03 0.00 0.00 0.00 0.00 0.00 0.00 0.00 0.00 0.00 0.00 0.00 0.00 0.00 0.00 0.00 0.00 0.00 0.00 0.00
0.28 0.27 0.28 0.18 0.08 0.04 0.07 0.07 0.03 0.00 0.00 0.00 0.00 0.00 0.00 0.01 0.03 0.00 0.00 0.00 0.00 0.00 0.00 0.00 0.01 0.00 0.00 0.00 0.00 0.00 0.00 0.00 0.00 0.00 0.00 0.00 0.00 0.00 0.00 0.00 0.00 0.00 0.00 0.00 0.00
0.19 0.25 0.34 0.39 0.25 0.15 0.11 0.05 0.01 0.00 0.00 0.00 0.00 0.00 0.00 0.00 0.00 0.00 0.00 0.01 0.01 0.00 0.00 0.00 0.00 0.00 0.01 0.00 0.00 0.03 0.01 0.00 0.00 0.00 0.00 0.00 0.00 0.00 0.00 0.00 0.00 0.00 0.00 0.00 0.00
MSLP
1021.78 1021.42 1021.18 1020.91 1020.55 1020.12 1019.65 1019.17 1018.78 1018.45 1018.23 1017.93 1017.68 1017.47 1017.25 1017.10 1016.93 1016.86 1016.30 1015.87 1015.88 1016.17 1016.32 1015.95 1015.80 1015.80 1015.84 1015.82 1015.96 1015.65 1014.50 1013.59 1013.61 1013.87 1013.83 1014.90 1015.09 1015.89 1016.54 1016.58 1017.16 1017.37 1017.63 1018.51 1018.97
1022.12 1021.88 1021.39 1020.98 1020.67 1020.29 1019.89 1019.43 1018.96 1018.54 1018.17 1017.88 1017.58 1017.33 1017.08 1016.93 1016.69 1016.27 1016.01 1015.94 1016.06 1016.25 1016.14 1015.66 1015.38 1015.46 1015.32 1015.56 1015.76 1015.19 1014.57 1013.83 1013.99 1014.16 1014.30 1014.80 1015.15 1015.42 1015.99 1015.99 1016.32 1016.91 1017.81 1018.86 1019.44
1022.26 1021.99 1021.60 1021.19 1020.75 1020.36 1019.97 1019.59 1019.13 1018.62 1018.17 1017.82 1017.50 1017.24 1017.01 1016.60 1016.39 1015.40 1015.64 1015.82 1015.95 1016.09 1016.14 1015.86 1015.52 1015.25 1015.00 1015.30 1015.36 1015.24 1014.55 1014.48 1014.43 1014.72 1015.00 1014.97 1015.12 1015.37 1015.28 1014.92 1014.52 1014.96 1016.14 1018.10 1018.97
1022.28 1022.06 1021.69 1021.26 1020.80 1020.35 1019.91 1019.56 1019.21 1018.73 1018.18 1017.73 1017.39 1017.13 1016.99 1016.47 1016.09 1015.30 1015.55 1015.62 1015.67 1015.71 1015.73 1015.71 1015.51 1015.19 1014.93 1014.96 1015.25 1014.99 1014.90 1014.92 1014.87 1015.15 1015.34 1015.13 1015.08 1014.90 1014.57 1013.33 1014.10 1014.56 1015.34 1016.89 1017.63
1022.28 1022.04 1021.73 1021.32 1020.82 1020.24 1019.74 1019.29 1018.93 1018.60 1018.15 1017.62 1017.22 1017.00 1016.94 1016.55 1015.48 1015.36 1015.53 1015.61 1015.62 1015.69 1015.46 1015.30 1015.09 1015.05 1014.80 1014.92 1015.24 1014.94 1014.74 1014.99 1015.04 1015.35 1015.30 1015.35 1014.76 1014.53 1013.62 1013.37 1014.08 1014.93 1015.57 1016.03 1016.57
1022.24 1022.03 1021.71 1021.33 1020.81 1020.21 1019.58 1019.04 1018.60 1018.20 1017.83 1017.46 1017.13 1016.96 1016.70 1016.32 1015.38 1015.42 1015.51 1015.64 1015.62 1015.44 1015.53 1015.39 1015.02 1015.14 1015.04 1015.14 1015.20 1014.86 1014.91 1014.77 1014.92 1015.09 1015.19 1015.05 1014.45 1014.73 1012.41 1012.95 1013.53 1014.42 1014.76 1015.21 1015.55
1022.11 1021.94 1021.70 1021.31 1020.85 1020.24 1019.52 1018.82 1018.24 1017.78 1017.36 1017.20 1017.01 1016.75 1016.43 1015.46 1015.23 1015.39 1015.46 1015.81 1015.94 1015.71 1015.53 1015.78 1015.68 1015.53 1015.52 1015.49 1015.66 1015.37 1014.90 1014.44 1014.41 1014.81 1014.98 1015.10 1014.26 1012.96 1011.66 1013.12 1013.16 1013.54 1013.97 1014.57 1014.90
1021.85 1021.76 1021.48 1021.08 1020.58 1020.14 1019.31 1018.42 1017.82 1017.26 1016.88 1016.85 1016.90 1016.61 1015.78 1015.41 1015.31 1015.46 1015.55 1015.84 1016.07 1015.97 1015.95 1016.07 1015.90 1015.84 1015.81 1016.05 1015.51 1015.04 1014.77 1013.76 1013.72 1014.51 1014.89 1015.05 1012.06 1011.05 1011.40 1012.37 1012.18 1012.38 1012.82 1013.46 1013.99
1021.71 1021.50 1021.26 1020.98 1020.36 1019.80 1018.99 1017.91 1017.27 1016.86 1016.83 1016.79 1016.82 1016.42 1015.58 1015.55 1015.46 1015.34 1015.49 1015.49 1015.94 1016.21 1016.27 1016.21 1015.99 1015.97 1016.03 1015.30 1014.61 1014.39 1013.20 1013.14 1013.44 1013.98 1014.47 1014.48 1011.70 1011.24 1011.63 1011.86 1011.32 1011.13 1011.59 1012.25 1012.99
1021.54 1021.32 1021.11 1020.66 1020.25 1019.48 1018.62 1017.31 1016.90 1016.86 1016.82 1016.66 1016.52 1016.76 1015.48 1015.14 1015.24 1015.35 1015.47 1015.53 1015.66 1015.97 1016.10 1015.98 1015.83 1015.51 1015.22 1014.56 1013.10 1012.70 1012.88 1012.53 1012.75 1013.64 1014.25 1013.74 1011.78 1010.57 1010.84 1011.40 1010.37 1009.61 1010.03 1010.63 1011.43
1021.27 1021.15 1020.99 1020.70 1020.20 1019.51 1018.56 1017.10 1017.26 1017.23 1016.78 1016.11 1015.70 1015.27 1015.08 1015.47 1015.53 1015.58 1015.54 1015.48 1015.50 1015.54 1015.35 1015.78 1015.42 1013.74 1013.27 1013.34 1013.03 1012.98 1012.83 1012.35 1011.95 1013.72 1013.93 1012.77 1011.89 1010.48 1010.08 1010.03 1009.00 1008.31 1008.30 1008.80 1009.84
1020.93 1021.04 1020.82 1020.43 1020.10 1019.59 1019.04 1018.68 1019.02 1019.61 1017.66 1015.91 1015.69 1015.54 1015.18 1015.15 1015.46 1015.51 1015.70 1015.52 1015.28 1014.92 1015.37 1015.69 1014.26 1012.85 1013.56 1013.73 1013.71 1013.51 1013.15 1012.17 1012.46 1013.65 1014.02 1012.60 1011.39 1010.58 1009.85 1008.51 1007.80 1007.16 1006.48 1007.48 1008.93
1020.58 1020.61 1020.70 1020.21 1019.70 1019.69 1019.48 1019.61 1019.87 1019.73 1018.57 1015.98 1015.47 1015.17 1015.25 1015.35 1015.00 1014.96 1015.31 1015.22 1014.94 1014.98 1014.77 1014.41 1012.93 1013.88 1013.93 1014.01 1014.04 1013.66 1013.17 1012.56 1013.33 1013.60 1013.63 1013.10 1010.61 1009.57 1008.30 1007.96 1006.91 1005.97 1005.84 1006.75 1007.82
1020.46 1020.25 1020.21 1020.03 1019.76 1020.17 1020.29 1020.37 1020.06 1019.90 1018.14 1015.95 1015.40 1015.08 1015.21 1015.16 1015.30 1015.33 1015.20 1015.13 1015.12 1014.74 1014.98 1014.49 1013.88 1014.00 1014.42 1013.95 1014.25 1014.02 1013.36 1013.60 1013.88 1014.36 1012.96 1013.03 1007.94 1008.01 1007.28 1006.63 1006.52 1005.06 1004.71 1005.93 1007.06
1020.33 1020.16 1019.88 1020.01 1020.46 1020.21 1020.52 1020.51 1020.43 1019.86 1017.19 1015.35 1015.11 1015.44 1015.25 1015.30 1015.57 1015.61 1015.69 1015.14 1014.72 1014.84 1015.11 1013.76 1014.24 1014.51 1014.58 1014.18 1014.27 1014.16 1014.34 1014.38 1014.40 1014.08 1013.44 1011.95 1010.32 1006.01 1006.66 1006.30 1005.42 1004.41 1004.06 1005.12 1006.26
1019.86 1020.01 1020.07 1020.05 1020.31 1020.13 1020.17 1020.33 1020.16 1019.41 1015.71 1014.63 1014.83 1015.07 1015.21 1015.15 1015.35 1015.68 1015.60 1015.48 1015.47 1015.05 1014.85 1014.11 1014.72 1014.75 1014.31 1014.96 1015.10 1015.14 1014.85 1014.67 1014.57 1013.77 1011.39 1009.45 1008.51 1005.08 1005.46 1005.09 1004.67 1003.78 1003.62 1004.78 1006.24
1019.26 1019.80 1020.03 1019.79 1019.77 1019.88 1020.05 1019.83 1019.58 1017.12 1015.12 1014.11 1014.03 1014.47 1014.58 1014.69 1014.84 1014.90 1015.02 1015.14 1014.74 1014.83 1014.14 1013.87 1014.04 1014.38 1014.71 1015.09 1015.52 1015.15 1014.83 1013.84 1012.60 1011.93 1007.89 1008.01 1007.28 1004.82 1004.88 1004.39 1004.12 1003.35 1003.76 1005.03 1006.26
1018.41 1019.25 1019.35 1019.55 1019.26 1019.73 1019.83 1019.18 1017.03 1013.84 1013.68 1013.37 1013.59 1013.89 1013.68 1013.53 1013.70 1014.12 1014.29 1014.13 1013.83 1013.69 1013.43 1013.11 1013.24 1013.91 1014.11 1013.96 1013.98 1014.56 1014.11 1013.54 1011.12 1010.30 1006.38 1007.65 1004.14 1002.91 1003.65 1003.58 1003.10 1004.19 1004.47 1005.59 1006.46
1017.37 1018.39 1018.78 1018.77 1019.28 1019.40 1019.34 1017.35 1012.86 1012.69 1012.52 1012.75 1013.39 1013.25 1012.88 1012.83 1013.11 1013.51 1013.22 1012.43 1011.85 1012.05 1012.06 1012.15 1012.03 1013.41 1014.21 1014.50 1014.84 1015.13 1014.61 1013.64 1012.31 1011.05 1008.30 1004.17 1001.99 1002.30 1002.74 1003.00 1003.44 1003.76 1004.28 1004.58 1005.49
1016.65 1016.91 1017.02 1017.74 1018.60 1018.97 1018.66 1013.92 1012.10 1011.97 1011.98 1011.89 1011.49 1011.06 1010.79 1011.26 1012.27 1012.46 1011.75 1010.88 1011.10 1010.94 1010.40 1011.04 1011.78 1012.93 1014.42 1014.77 1015.11 1014.54 1014.24 1013.96 1013.33 1011.13 1007.99 1001.14 1001.06 1000.94 1001.85 1002.05 1002.44 1003.00 1003.38 1003.45 1004.57
1015.83 1016.10 1015.34 1016.38 1017.69 1017.96 1016.15 1012.96 1011.80 1011.51 1011.59 1011.20 1010.44 1010.11 1009.94 1010.22 1010.63 1010.57 1009.58 1009.97 1010.11 1010.36 1010.98 1011.20 1011.81 1012.63 1014.33 1013.81 1012.98 1014.56 1013.86 1013.59 1013.00 1011.46 1009.03 1004.89 1000.23 999.94 1000.26 1000.76 1001.50 1001.76 1002.33 1003.10 1004.36
1015.55 1015.73 1015.44 1015.98 1017.04 1015.85 1014.49 1011.93 1012.62 1011.92 1011.58 1011.15 1010.68 1009.82 1009.52 1009.54 1009.36 1009.56 1008.74 1008.88 1009.06 1009.98 1011.04 1011.25 1011.57 1011.69 1011.67 1012.43 1012.41 1012.19 1011.77 1011.28 1010.76 1009.33 1008.20 1007.21 995.95 1000.19 999.56 999.89 1001.21 1001.88 1002.08 1002.80 1003.31
1014.71 1015.29 1015.82 1014.73 1014.39 1014.14 1013.53 1012.60 1012.38 1011.78 1011.21 1010.48 1010.06 1009.85 1009.74 1009.32 1009.31 1008.84 1008.61 1008.50 1009.32 1009.73 1009.68 1010.54 1011.64 1012.03 1010.76 1012.54 1012.68 1011.66 1010.81 1010.09 1009.16 1008.19 1004.84 1006.88 996.47 999.62 999.33 999.98 1000.60 1001.11 1001.42 1001.98 1002.16
1013.94 1014.41 1015.08 1014.63 1013.39 1012.69 1012.69 1011.86 1011.78 1010.63 1010.54 1010.25 1009.72 1009.66 1010.10 1009.29 1008.91 1008.70 1007.91 1008.56 1008.90 1008.87 1009.08 1010.25 1010.66 1010.57 1009.17 1008.37 1009.11 1010.02 1009.89 1009.23 1008.41 1006.66 1005.02 1003.24 1000.50 996.98 999.66 999.73 998.75 999.56 1000.28 1000.55 1000.70
1012.74 1011.68 1012.20 1013.18 1012.38 1012.33 1011.77 1010.82 1010.49 1010.16 1009.95 1009.93 1009.56 1009.43 1009.41 1009.10 1008.70 1008.00 1007.91 1008.45 1009.00 1009.10 1009.49 1009.47 1010.45 1010.70 1009.35 1007.69 1008.19 1007.71 1008.30 1007.41 1005.60 1005.54 1004.58 1000.37 1001.83 998.82 997.94 998.22 997.94 998.14 998.81 998.42 999.04
1012.45 1011.25 1011.71 1010.61 1010.65 1011.24 1011.22 1009.59 1008.96 1007.99 1008.65 1008.74 1008.22 1007.70 1007.71 1007.80 1008.06 1006.29 1007.36 1007.66 1007.93 1009.27 1009.83 1009.79 1008.86 1009.77 1008.88 1007.62 1007.53 1007.56 1007.35 1005.45 1004.16 1002.65 1002.76 1002.19 1001.07 998.72 998.31 997.38 998.15 996.41 997.49 997.55 997.87
1012.49 1011.55 1011.08 1009.63 1009.64 1009.74 1008.13 1007.82 1007.50 1007.45 1007.40 1006.48 1005.98 1006.71 1006.72 1005.96 1005.48 1005.11 1006.59 1007.24 1007.99 1008.59 1009.25 1009.70 1009.03 1009.06 1007.55 1007.18 1007.43 1006.71 1003.58 1004.29 1001.24 1001.62 1000.94 1000.20 998.25 998.03 997.00 996.20 996.11 994.99 996.66 996.58 996.45
Thickness
5723 5726 5727 5730 5733 5737 5741 5745 5748 5751 5752 5754 5755 5757 5757 5757 5756 5754 5751 5759 5757 5755 5752 5751 5749 5745 5741 5732 5728 5726 5721 5719 5718 5711 5722 5715 5713 5707 5701 5701 5694 5697 5696 5691 5689
5717 5719 5723 5726 5729 5732 5735 5739 5744 5747 5750 5752 5754 5755 5757 5757 5757 5753 5759 5757 5755 5752 5750 5749 5745 5743 5737 5730 5725 5725 5719 5723 5726 5724 5720 5717 5713 5711 5704 5701 5698 5696 5692 5683 5680
5711 5714 5717 5721 5724 5727 5730 5734 5738 5742 5746 5749 5751 5753 5754 5755 5750 5759 5760 5757 5755 5752 5750 5748 5746 5743 5735 5731 5726 5720 5721 5722 5724 5721 5717 5715 5709 5710 5706 5702 5714 5710 5707 5685 5679
5706 5708 5712 5715 5719 5723 5726 5729 5732 5736 5741 5745 5747 5749 5751 5753 5732 5758 5757 5756 5754 5751 5748 5742 5739 5734 5731 5727 5725 5719 5719 5718 5719 5716 5711 5710 5711 5707 5708 5723 5718 5716 5709 5692 5685
5700 5703 5706 5710 5714 5718 5722 5726 5728 5731 5735 5739 5743 5745 5746 5740 5747 5755 5753 5752 5750 5747 5743 5741 5737 5732 5729 5727 5720 5719 5721 5716 5717 5711 5709 5705 5709 5707 5711 5722 5716 5704 5697 5692 5688
5692 5695 5700 5704 5708 5713 5718 5722 5725 5728 5731 5734 5737 5738 5739 5728 5751 5750 5749 5747 5745 5744 5738 5737 5735 5732 5726 5722 5719 5721 5714 5715 5713 5711 5707 5704 5710 5700 5727 5719 5713 5702 5699 5695 5692
5687 5689 5692 5696 5700 5706 5711 5718 5722 5726 5729 5730 5731 5732 5731 5739 5744 5743 5742 5739 5738 5738 5734 5731 5729 5724 5720 5712 5710 5708 5708 5712 5711 5706 5703 5699 5701 5707 5730 5709 5710 5705 5701 5696 5691
5680 5682 5686 5689 5693 5698 5704 5712 5718 5722 5725 5724 5723 5725 5725 5737 5736 5735 5734 5731 5729 5729 5726 5723 5723 5715 5711 5704 5704 5702 5698 5706 5711 5699 5696 5693 5717 5731 5727 5709 5712 5713 5705 5697 5692
5673 5676 5678 5681 5687 5692 5698 5707 5714 5716 5716 5716 5715 5715 5718 5728 5727 5729 5728 5724 5720 5716 5714 5713 5711 5703 5699 5701 5701 5695 5707 5701 5699 5696 5687 5686 5718 5721 5711 5705 5712 5715 5709 5699 5691
5665 5668 5670 5674 5679 5686 5692 5703 5706 5707 5707 5707 5707 5701 5713 5718 5719 5719 5719 5716 5711 5706 5703 5702 5698 5699 5695 5695 5692 5703 5691 5701 5695 5692 5675 5681 5698 5722 5718 5701 5712 5722 5716 5706 5695
5658 5660 5662 5664 5669 5676 5685 5696 5697 5696 5697 5702 5702 5704 5706 5708 5711 5708 5709 5706 5703 5699 5693 5686 5687 5700 5707 5701 5703 5693 5686 5691 5710 5676 5669 5685 5684 5707 5716 5711 5715 5720 5720 5715 5702
5651 5651 5653 5656 5661 5665 5670 5676 5672 5666 5678 5691 5690 5690 5697 5702 5698 5698 5699 5694 5692 5688 5680 5674 5682 5710 5691 5684 5677 5675 5675 5689 5693 5665 5653 5671 5673 5689 5698 5714 5719 5723 5728 5717 5701
5642 5643 5643 5647 5652 5654 5657 5658 5653 5653 5657 5681 5682 5684 5688 5691 5692 5695 5692 5686 5684 5674 5676 5676 5701 5677 5675 5673 5666 5669 5671 5681 5665 5659 5648 5641 5663 5678 5701 5701 5715 5723 5723 5716 5702
5632 5635 5635 5637 5642 5638 5641 5638 5641 5641 5649 5656 5671 5675 5677 5681 5677 5682 5682 5680 5671 5673 5664 5667 5678 5671 5665 5670 5664 5658 5671 5660 5650 5637 5650 5637 5658 5685 5701 5703 5701 5720 5726 5708 5697
5622 5625 5627 5625 5623 5631 5627 5625 5626 5632 5623 5650 5646 5660 5666 5668 5665 5666 5666 5668 5666 5660 5656 5674 5658 5654 5655 5665 5660 5659 5643 5640 5631 5628 5612 5642 5626 5680 5663 5675 5695 5713 5714 5703 5695
5612 5613 5613 5615 5611 5614 5615 5614 5617 5619 5607 5639 5640 5643 5649 5656 5655 5652 5654 5654 5650 5647 5644 5656 5645 5647 5659 5637 5636 5628 5631 5623 5609 5616 5613 5656 5644 5667 5671 5674 5685 5705 5710 5691 5678
5604 5600 5601 5602 5607 5603 5601 5607 5603 5601 5619 5636 5641 5632 5636 5639 5642 5645 5642 5637 5641 5632 5642 5645 5644 5638 5636 5636 5623 5626 5628 5628 5632 5626 5642 5636 5623 5655 5668 5677 5683 5699 5700 5679 5667
5590 5588 5591 5589 5592 5589 5589 5596 5588 5622 5628 5629 5626 5624 5632 5634 5634 5629 5627 5632 5635 5631 5630 5638 5648 5633 5634 5643 5644 5619 5629 5626 5618 5627 5646 5609 5625 5670 5666 5676 5691 5671 5673 5656 5654
5581 5575 5578 5579 5573 5572 5576 5584 5621 5627 5625 5618 5611 5614 5623 5623 5626 5615 5619 5629 5642 5637 5633 5624 5636 5614 5608 5609 5611 5603 5602 5610 5605 5580 5592 5651 5674 5667 5654 5658 5665 5663 5658 5655 5651
5567 5567 5573 5570 5558 5554 5556 5601 5616 5619 5613 5612 5621 5627 5628 5631 5610 5609 5617 5628 5627 5630 5639 5621 5615 5613 5587 5594 5584 5598 5594 5586 5586 5590 5604 5663 5658 5654 5658 5660 5667 5659 5654 5655 5644
5558 5554 5570 5560 5545 5536 5553 5594 5609 5605 5605 5606 5612 5611 5615 5620 5611 5607 5628 5622 5620 5620 5613 5610 5607 5605 5579 5589 5607 5577 5582 5575 5573 5576 5591 5607 5641 5663 5666 5664 5661 5661 5655 5648 5629
5544 5543 5543 5544 5531 5534 5544 5585 5577 5584 5588 5592 5588 5599 5603 5606 5604 5599 5609 5615 5621 5607 5591 5594 5581 5596 5609 5578 5575 5579 5592 5597 5589 5590 5583 5584 5657 5652 5667 5662 5655 5646 5642 5632 5621
5529 5530 5519 5528 5534 5528 5547 5554 5558 5570 5575 5581 5579 5579 5588 5585 5572 5590 5601 5610 5596 5592 5589 5578 5551 5560 5593 5558 5540 5567 5574 5581 5590 5591 5599 5564 5645 5668 5663 5660 5643 5635 5634 5623 5619
5514 5509 5502 5503 5521 5533 5538 5547 5543 5559 5560 5560 5561 5564 5557 5561 5570 5567 5585 5587 5581 5587 5582 5569 5547 5561 5581 5606 5584 5566 5562 5566 5568 5571 5581 5582 5611 5659 5644 5642 5651 5641 5627 5618 5616
5503 5512 5503 5485 5505 5513 5523 5536 5543 5543 5541 5543 5539 5551 5552 5551 5557 5565 5578 5570 5558 5561 5557 5554 5532 5537 5557 5585 5576 5577 5568 5582 5569 5567 5561 5610 5582 5622 5641 5636 5638 5636 5621 5623 5615
5483 5497 5482 5497 5510 5496 5496 5522 5534 5556 5542 5536 5534 5552 5550 5543 5542 5571 5561 5560 5555 5526 5534 5526 5537 5528 5530 5563 5560 5543 5556 5578 5579 5591 5569 5562 5564 5618 5614 5623 5610 5627 5610 5607 5605
5456 5466 5472 5491 5489 5487 5503 5509 5523 5539 5535 5546 5548 5538 5532 5551 5564 5559 5548 5538 5530 5531 5524 5514 5520 5511 5507 5542 5527 5499 5569 5569 5588 5586 5584 5568 5592 5603 5610 5609 5608 5618 5599 5599 5600